owner,sensor,date,latitude,longitude,vertical_datum,direction_of_sea_water_velocity,sea_water_speed,upward_sea_water_velocity,qcFlag 
TABS,ioos:station:wmo:42043:1,2014-10-01T00:00:00Z,28.9818,-94.9186,2.0,303.7791418,12.53623947,-99999.0,'11111222,11111222,99999999' 
TABS,ioos:station:wmo:42043:1,2014-10-01T00:30:00Z,28.9818,-94.9186,2.0,303.765898,8.420356287,-99999.0,'11133222,11111222,99999999' 
TABS,ioos:station:wmo:42043:1,2014-10-01T01:00:00Z,28.9818,-94.9186,2.0,300.1593569,12.69900784,-99999.0,'11111222,11111222,99999999' 
TABS,ioos:station:wmo:42043:1,2014-10-01T01:30:00Z,28.9818,-94.9186,2.0,287.8981957,10.1197332,-99999.0,'11111222,11111222,99999999' 
TABS,ioos:station:wmo:42043:1,2014-10-01T02:00:00Z,28.9818,-94.9186,2.0,291.3811827,11.38343094,-99999.0,'11111222,11111222,99999999' 
TABS,ioos:station:wmo:42043:1,2014-10-01T02:30:00Z,28.9818,-94.9186,2.0,280.4902705,13.01756122,-99999.0,'11111222,11111222,99999999' 
TABS,ioos:station:wmo:42043:1,2014-10-01T03:00:00Z,28.9818,-94.9186,2.0,283.3834722,11.2762139,-99999.0,'11111222,11111222,99999999' 
TABS,ioos:station:wmo:42043:1,2014-10-01T03:30:00Z,28.9818,-94.9186,2.0,268.6595744,11.97327441,-99999.0,'11111222,11111222,99999999' 
TABS,ioos:station:wmo:42043:1,2014-10-01T04:00:00Z,28.9818,-94.9186,2.0,274.0016303,11.60829445,-99999.0,'11111222,11111222,99999999' 
TABS,ioos:station:wmo:42043:1,2014-10-01T04:30:00Z,28.9818,-94.9186,2.0,263.1040667,12.07735898,-99999.0,'11111222,11111222,99999999' 
TABS,ioos:station:wmo:42043:1,2014-10-01T05:00:00Z,28.9818,-94.9186,2.0,266.7388842,13.36163164,-99999.0,'11111222,11111222,99999999' 
TABS,ioos:station:wmo:42043:1,2014-10-01T05:30:00Z,28.9818,-94.9186,2.0,259.6055428,12.6373771,-99999.0,'11111222,11111222,99999999' 
TABS,ioos:station:wmo:42043:1,2014-10-01T06:00:00Z,28.9818,-94.9186,2.0,269.4462208,13.46062777,-99999.0,'11111222,11111222,99999999' 
TABS,ioos:station:wmo:42043:1,2014-10-01T06:30:00Z,28.9818,-94.9186,2.0,262.8536552,13.58552539,-99999.0,'11111222,11111222,99999999' 
TABS,ioos:station:wmo:42043:1,2014-10-01T07:00:00Z,28.9818,-94.9186,2.0,259.9314095,12.1267473,-99999.0,'11111222,11111222,99999999' 
TABS,ioos:station:wmo:42043:1,2014-10-01T07:30:00Z,28.9818,-94.9186,2.0,261.677587,11.40003947,-99999.0,'11111222,11111222,99999999' 
TABS,ioos:station:wmo:42043:1,2014-10-01T08:00:00Z,28.9818,-94.9186,2.0,258.820224,13.77131076,-99999.0,'11111222,11111222,99999999' 
TABS,ioos:station:wmo:42043:1,2014-10-01T08:30:00Z,28.9818,-94.9186,2.0,273.0761544,14.35067246,-99999.0,'11111222,11111222,99999999' 
TABS,ioos:station:wmo:42043:1,2014-10-01T09:00:00Z,28.9818,-94.9186,2.0,281.3180373,14.57339013,-99999.0,'11111222,11111222,99999999' 
TABS,ioos:station:wmo:42043:1,2014-10-01T09:30:00Z,28.9818,-94.9186,2.0,266.9548078,13.17860387,-99999.0,'11111222,11111222,99999999' 
TABS,ioos:station:wmo:42043:1,2014-10-01T10:00:00Z,28.9818,-94.9186,2.0,262.8684099,11.51910587,-99999.0,'11111222,11111222,99999999' 
TABS,ioos:station:wmo:42043:1,2014-10-01T10:30:00Z,28.9818,-94.9186,2.0,258.1153207,13.49935184,-99999.0,'11111222,11111222,99999999' 
TABS,ioos:station:wmo:42043:1,2014-10-01T11:00:00Z,28.9818,-94.9186,2.0,262.4584651,14.85851271,-99999.0,'11111222,11111222,99999999' 
TABS,ioos:station:wmo:42043:1,2014-10-01T11:30:00Z,28.9818,-94.9186,2.0,258.1694934,13.60905948,-99999.0,'11111222,11111222,99999999' 
TABS,ioos:station:wmo:42043:1,2014-10-01T12:00:00Z,28.9818,-94.9186,2.0,257.5686861,13.33256539,-99999.0,'11111222,11111222,99999999' 
TABS,ioos:station:wmo:42043:1,2014-10-01T12:30:00Z,28.9818,-94.9186,2.0,253.2370638,16.46983303,-99999.0,'11111222,11111222,99999999' 
TABS,ioos:station:wmo:42043:1,2014-10-01T13:00:00Z,28.9818,-94.9186,2.0,249.5119058,16.68539781,-99999.0,'11111222,11111222,99999999' 
TABS,ioos:station:wmo:42043:1,2014-10-01T13:30:00Z,28.9818,-94.9186,2.0,252.8549831,19.09867535,-99999.0,'11111222,11111222,99999999' 
TABS,ioos:station:wmo:42043:1,2014-10-01T14:00:00Z,28.9818,-94.9186,2.0,250.3770759,16.02037765,-99999.0,'11111222,11111222,99999999' 
TABS,ioos:station:wmo:42043:1,2014-10-01T14:30:00Z,28.9818,-94.9186,2.0,242.8850084,14.9197319,-99999.0,'11111222,11111222,99999999' 
TABS,ioos:station:wmo:42043:1,2014-10-01T15:00:00Z,28.9818,-94.9186,2.0,246.0305996,17.77261939,-99999.0,'11111222,11111222,99999999' 
TABS,ioos:station:wmo:42043:1,2014-10-01T15:30:00Z,28.9818,-94.9186,2.0,239.5734417,18.46263524,-99999.0,'11111222,11111222,99999999' 
TABS,ioos:station:wmo:42043:1,2014-10-01T16:00:00Z,28.9818,-94.9186,2.0,234.0952269,18.16057818,-99999.0,'11111222,11111222,99999999' 
TABS,ioos:station:wmo:42043:1,2014-10-01T16:30:00Z,28.9818,-94.9186,2.0,213.6842037,28.50604322,-99999.0,'11111222,11111222,99999999' 
TABS,ioos:station:wmo:42043:1,2014-10-01T17:00:00Z,28.9818,-94.9186,2.0,221.3170123,34.4577553,-99999.0,'11111222,11111222,99999999' 
TABS,ioos:station:wmo:42043:1,2014-10-01T17:30:00Z,28.9818,-94.9186,2.0,228.3685856,38.86611506,-99999.0,'11111222,11111222,99999999' 
TABS,ioos:station:wmo:42043:1,2014-10-01T18:00:00Z,28.9818,-94.9186,2.0,236.824883,34.53980457,-99999.0,'11111222,11111222,99999999' 
TABS,ioos:station:wmo:42043:1,2014-10-01T18:30:00Z,28.9818,-94.9186,2.0,236.8439384,34.79508299,-99999.0,'11111222,11111222,99999999' 
TABS,ioos:station:wmo:42043:1,2014-10-01T19:00:00Z,28.9818,-94.9186,2.0,237.5308325,37.08735903,-99999.0,'11111222,11111222,99999999' 
TABS,ioos:station:wmo:42043:1,2014-10-01T19:30:00Z,28.9818,-94.9186,2.0,241.1159899,35.48414435,-99999.0,'11111222,11111222,99999999' 
TABS,ioos:station:wmo:42043:1,2014-10-01T20:00:00Z,28.9818,-94.9186,2.0,243.8898149,32.08411601,-99999.0,'11111222,11111222,99999999' 
TABS,ioos:station:wmo:42043:1,2014-10-01T20:30:00Z,28.9818,-94.9186,2.0,247.459934,29.68772137,-99999.0,'11111222,11111222,99999999' 
TABS,ioos:station:wmo:42043:1,2014-10-01T21:00:00Z,28.9818,-94.9186,2.0,258.4707459,31.82203639,-99999.0,'11111222,11111222,99999999' 
TABS,ioos:station:wmo:42043:1,2014-10-01T21:30:00Z,28.9818,-94.9186,2.0,259.3058856,31.36470628,-99999.0,'11111222,11111222,99999999' 
TABS,ioos:station:wmo:42043:1,2014-10-01T22:00:00Z,28.9818,-94.9186,2.0,263.9057565,30.04980033,-99999.0,'11111222,11111222,99999999' 
TABS,ioos:station:wmo:42043:1,2014-10-01T22:30:00Z,28.9818,-94.9186,2.0,267.512432,31.10930568,-99999.0,'11111222,11111222,99999999' 
TABS,ioos:station:wmo:42043:1,2014-10-01T23:00:00Z,28.9818,-94.9186,2.0,270.2634442,26.14027544,-99999.0,'11111222,11111222,99999999' 
TABS,ioos:station:wmo:42043:1,2014-10-01T23:30:00Z,28.9818,-94.9186,2.0,268.4224039,25.0694974,-99999.0,'11111222,11111222,99999999' 
TABS,ioos:station:wmo:42043:1,2014-10-02T00:00:00Z,28.9818,-94.9186,2.0,274.1210526,18.64820635,-99999.0,'11111222,11111222,99999999' 
TABS,ioos:station:wmo:42043:1,2014-10-02T00:30:00Z,28.9818,-94.9186,2.0,267.3005451,16.98884634,-99999.0,'11111222,11111222,99999999' 
TABS,ioos:station:wmo:42043:1,2014-10-02T01:00:00Z,28.9818,-94.9186,2.0,291.3663621,20.03710558,-99999.0,'11111222,11111222,99999999' 
TABS,ioos:station:wmo:42043:1,2014-10-02T01:30:00Z,28.9818,-94.9186,2.0,303.3744442,18.10568971,-99999.0,'11111222,11111222,99999999' 
TABS,ioos:station:wmo:42043:1,2014-10-02T02:00:00Z,28.9818,-94.9186,2.0,311.5813859,15.41407798,-99999.0,'11111222,11111222,99999999' 
TABS,ioos:station:wmo:42043:1,2014-10-02T02:30:00Z,28.9818,-94.9186,2.0,322.9482195,12.58006359,-99999.0,'11111222,11111222,99999999' 
TABS,ioos:station:wmo:42043:1,2014-10-02T03:00:00Z,28.9818,-94.9186,2.0,321.1250425,12.45963081,-99999.0,'11111222,11111222,99999999' 
TABS,ioos:station:wmo:42043:1,2014-10-02T03:30:00Z,28.9818,-94.9186,2.0,320.6128965,11.92951382,-99999.0,'11111222,11111222,99999999' 
TABS,ioos:station:wmo:42043:1,2014-10-02T04:00:00Z,28.9818,-94.9186,2.0,323.8903005,10.70694167,-99999.0,'11111222,11111222,99999999' 
TABS,ioos:station:wmo:42043:1,2014-10-02T04:30:00Z,28.9818,-94.9186,2.0,321.7018259,5.695770361,-99999.0,'11133222,11111222,99999999' 
TABS,ioos:station:wmo:42043:1,2014-10-02T05:00:00Z,28.9818,-94.9186,2.0,332.9577687,5.366749482,-99999.0,'11133222,11111222,99999999' 
TABS,ioos:station:wmo:42043:1,2014-10-02T05:30:00Z,28.9818,-94.9186,2.0,206.9058201,1.502664301,-99999.0,'11133222,11111222,99999999' 
TABS,ioos:station:wmo:42043:1,2014-10-02T06:00:00Z,28.9818,-94.9186,2.0,247.1659783,1.64924225,-99999.0,'11133222,11111222,99999999' 
TABS,ioos:station:wmo:42043:1,2014-10-02T06:30:00Z,28.9818,-94.9186,2.0,244.2896854,0.599332963,-99999.0,'11133222,11111222,99999999' 
TABS,ioos:station:wmo:42043:1,2014-10-02T07:00:00Z,28.9818,-94.9186,2.0,224.5383767,4.391275441,-99999.0,'11133222,11111222,99999999' 
TABS,ioos:station:wmo:42043:1,2014-10-02T07:30:00Z,28.9818,-94.9186,2.0,206.7654631,7.660815883,-99999.0,'11133222,11111222,99999999' 
TABS,ioos:station:wmo:42043:1,2014-10-02T08:00:00Z,28.9818,-94.9186,2.0,207.135613,8.528786549,-99999.0,'11133222,11111222,99999999' 
TABS,ioos:station:wmo:42043:1,2014-10-02T08:30:00Z,28.9818,-94.9186,2.0,220.5002804,8.022100722,-99999.0,'11133222,11111222,99999999' 
TABS,ioos:station:wmo:42043:1,2014-10-02T09:00:00Z,28.9818,-94.9186,2.0,197.7682098,7.34014305,-99999.0,'11133222,11111222,99999999' 
TABS,ioos:station:wmo:42043:1,2014-10-02T09:30:00Z,28.9818,-94.9186,2.0,195.3482132,6.460417943,-99999.0,'11133222,11111222,99999999' 
TABS,ioos:station:wmo:42043:1,2014-10-02T10:00:00Z,28.9818,-94.9186,2.0,189.9330666,3.9999625,-99999.0,'11133222,11111222,99999999' 
TABS,ioos:station:wmo:42043:1,2014-10-02T10:30:00Z,28.9818,-94.9186,2.0,118.4188857,2.626518608,-99999.0,'11133222,11111222,99999999' 
TABS,ioos:station:wmo:42043:1,2014-10-02T11:00:00Z,28.9818,-94.9186,2.0,148.9382312,5.019770911,-99999.0,'11133222,11111222,99999999' 
TABS,ioos:station:wmo:42043:1,2014-10-02T11:30:00Z,28.9818,-94.9186,2.0,183.3132072,1.903181547,-99999.0,'11133222,11111222,99999999' 
TABS,ioos:station:wmo:42043:1,2014-10-02T12:00:00Z,28.9818,-94.9186,2.0,136.9304777,0.62968246,-99999.0,'11133222,11111222,99999999' 
TABS,ioos:station:wmo:42043:1,2014-10-02T12:30:00Z,28.9818,-94.9186,2.0,167.8829559,1.810331461,-99999.0,'11133222,11111222,99999999' 
TABS,ioos:station:wmo:42043:1,2014-10-02T13:00:00Z,28.9818,-94.9186,2.0,161.4152872,6.055782361,-99999.0,'11133222,11111222,99999999' 
TABS,ioos:station:wmo:42043:1,2014-10-02T13:30:00Z,28.9818,-94.9186,2.0,187.1547948,4.736887164,-99999.0,'11133222,11111222,99999999' 
TABS,ioos:station:wmo:42043:1,2014-10-02T14:00:00Z,28.9818,-94.9186,2.0,194.5095071,4.98912818,-99999.0,'11133222,11111222,99999999' 
TABS,ioos:station:wmo:42043:1,2014-10-02T14:30:00Z,28.9818,-94.9186,2.0,182.5760757,30.70103093,-99999.0,'11111222,11111222,99999999' 
TABS,ioos:station:wmo:42043:1,2014-10-02T15:00:00Z,28.9818,-94.9186,2.0,184.2207984,31.65586518,-99999.0,'11111222,11111222,99999999' 
TABS,ioos:station:wmo:42043:1,2014-10-02T15:30:00Z,28.9818,-94.9186,2.0,180.2808451,28.54034338,-99999.0,'11111222,11111222,99999999' 
TABS,ioos:station:wmo:42043:1,2014-10-02T16:00:00Z,28.9818,-94.9186,2.0,190.2722621,25.34628178,-99999.0,'11111222,11111222,99999999' 
TABS,ioos:station:wmo:42043:1,2014-10-02T16:30:00Z,28.9818,-94.9186,2.0,204.6068995,23.82355977,-99999.0,'11111222,11111222,99999999' 
TABS,ioos:station:wmo:42043:1,2014-10-02T17:00:00Z,28.9818,-94.9186,2.0,198.77214,23.08818962,-99999.0,'11111222,11111222,99999999' 
TABS,ioos:station:wmo:42043:1,2014-10-02T17:30:00Z,28.9818,-94.9186,2.0,207.8701401,22.18307914,-99999.0,'11111222,11111222,99999999' 
TABS,ioos:station:wmo:42043:1,2014-10-02T18:00:00Z,28.9818,-94.9186,2.0,205.0486652,24.84694146,-99999.0,'11111222,11111222,99999999' 
TABS,ioos:station:wmo:42043:1,2014-10-02T18:30:00Z,28.9818,-94.9186,2.0,202.0086761,24.09598514,-99999.0,'11111222,11111222,99999999' 
TABS,ioos:station:wmo:42043:1,2014-10-02T19:00:00Z,28.9818,-94.9186,2.0,198.4346953,23.97006466,-99999.0,'11111222,11111222,99999999' 
TABS,ioos:station:wmo:42043:1,2014-10-02T19:30:00Z,28.9818,-94.9186,2.0,195.2182307,20.57140005,-99999.0,'11111222,11111222,99999999' 
TABS,ioos:station:wmo:42043:1,2014-10-02T20:00:00Z,28.9818,-94.9186,2.0,199.5682206,18.06330258,-99999.0,'11111222,11111222,99999999' 
TABS,ioos:station:wmo:42043:1,2014-10-02T20:30:00Z,28.9818,-94.9186,2.0,206.4367796,16.01475882,-99999.0,'11111222,11111222,99999999' 
TABS,ioos:station:wmo:42043:1,2014-10-02T21:00:00Z,28.9818,-94.9186,2.0,217.509147,15.94699345,-99999.0,'11111222,11111222,99999999' 
TABS,ioos:station:wmo:42043:1,2014-10-02T21:30:00Z,28.9818,-94.9186,2.0,215.9035636,10.91355121,-99999.0,'11111222,11111222,99999999' 
TABS,ioos:station:wmo:42043:1,2014-10-02T22:00:00Z,28.9818,-94.9186,2.0,231.2127888,6.337546844,-99999.0,'11133222,11111222,99999999' 
TABS,ioos:station:wmo:42043:1,2014-10-02T22:30:00Z,28.9818,-94.9186,2.0,152.5541954,4.946766621,-99999.0,'11133222,11111222,99999999' 
TABS,ioos:station:wmo:42043:1,2014-10-02T23:00:00Z,28.9818,-94.9186,2.0,115.4287943,8.570297544,-99999.0,'11133222,11111222,99999999' 
TABS,ioos:station:wmo:42043:1,2014-10-02T23:30:00Z,28.9818,-94.9186,2.0,75.00948041,8.737345135,-99999.0,'11133222,11111222,99999999' 
TABS,ioos:station:wmo:42043:1,2014-10-03T00:00:00Z,28.9818,-94.9186,2.0,35.77620452,12.57229096,-99999.0,'11111222,11111222,99999999' 
TABS,ioos:station:wmo:42043:1,2014-10-03T00:30:00Z,28.9818,-94.9186,2.0,33.70101787,14.68846146,-99999.0,'11111222,11111222,99999999' 
TABS,ioos:station:wmo:42043:1,2014-10-03T01:00:00Z,28.9818,-94.9186,2.0,27.70646498,14.81912616,-99999.0,'11111222,11111222,99999999' 
TABS,ioos:station:wmo:42043:1,2014-10-03T01:30:00Z,28.9818,-94.9186,2.0,33.59714911,20.49342578,-99999.0,'11111222,11111222,99999999' 
TABS,ioos:station:wmo:42043:1,2014-10-03T02:00:00Z,28.9818,-94.9186,2.0,40.92818277,23.20217447,-99999.0,'11111222,11111222,99999999' 
TABS,ioos:station:wmo:42043:1,2014-10-03T02:30:00Z,28.9818,-94.9186,2.0,36.22652698,25.82162853,-99999.0,'11111222,11111222,99999999' 
TABS,ioos:station:wmo:42043:1,2014-10-03T03:00:00Z,28.9818,-94.9186,2.0,36.26521821,24.63137227,-99999.0,'11111222,11111222,99999999' 
TABS,ioos:station:wmo:42043:1,2014-10-03T03:30:00Z,28.9818,-94.9186,2.0,42.49087519,25.03437037,-99999.0,'11111222,11111222,99999999' 
TABS,ioos:station:wmo:42043:1,2014-10-03T04:00:00Z,28.9818,-94.9186,2.0,41.80417469,27.90340481,-99999.0,'11111222,11111222,99999999' 
TABS,ioos:station:wmo:42043:1,2014-10-03T04:30:00Z,28.9818,-94.9186,2.0,43.13516815,24.11804511,-99999.0,'11111222,11111222,99999999' 
TABS,ioos:station:wmo:42043:1,2014-10-03T05:00:00Z,28.9818,-94.9186,2.0,49.58362432,20.17463754,-99999.0,'11111222,11111222,99999999' 
TABS,ioos:station:wmo:42043:1,2014-10-03T05:30:00Z,28.9818,-94.9186,2.0,59.45496137,19.71600365,-99999.0,'11111222,11111222,99999999' 
TABS,ioos:station:wmo:42043:1,2014-10-03T06:00:00Z,28.9818,-94.9186,2.0,83.39936778,12.87534466,-99999.0,'11111222,11111222,99999999' 
TABS,ioos:station:wmo:42043:1,2014-10-03T06:30:00Z,28.9818,-94.9186,2.0,88.79439152,13.78305119,-99999.0,'11111222,11111222,99999999' 
TABS,ioos:station:wmo:42043:1,2014-10-03T07:00:00Z,28.9818,-94.9186,2.0,103.3958637,15.6251208,-99999.0,'11111222,11111222,99999999' 
TABS,ioos:station:wmo:42043:1,2014-10-03T07:30:00Z,28.9818,-94.9186,2.0,111.4860274,17.88273189,-99999.0,'11111222,11111222,99999999' 
TABS,ioos:station:wmo:42043:1,2014-10-03T08:00:00Z,28.9818,-94.9186,2.0,136.3109628,30.2862411,-99999.0,'11111222,11111222,99999999' 
TABS,ioos:station:wmo:42043:1,2014-10-03T08:30:00Z,28.9818,-94.9186,2.0,143.8575341,34.80880636,-99999.0,'11111222,11111222,99999999' 
TABS,ioos:station:wmo:42043:1,2014-10-03T09:00:00Z,28.9818,-94.9186,2.0,148.7299616,34.02237499,-99999.0,'11111222,11111222,99999999' 
TABS,ioos:station:wmo:42043:1,2014-10-03T09:30:00Z,28.9818,-94.9186,2.0,153.7117561,37.00735738,-99999.0,'11111222,11111222,99999999' 
TABS,ioos:station:wmo:42043:1,2014-10-03T10:00:00Z,28.9818,-94.9186,2.0,160.1537292,41.09044901,-99999.0,'11111222,11111222,99999999' 
TABS,ioos:station:wmo:42043:1,2014-10-03T10:30:00Z,28.9818,-94.9186,2.0,165.878054,45.49488323,-99999.0,'11111222,11111222,99999999' 
TABS,ioos:station:wmo:42043:1,2014-10-03T11:00:00Z,28.9818,-94.9186,2.0,170.4562811,45.23607078,-99999.0,'11111222,11111222,99999999' 
TABS,ioos:station:wmo:42043:1,2014-10-03T11:30:00Z,28.9818,-94.9186,2.0,173.5342449,50.97421015,-99999.0,'11111222,11111222,99999999' 
TABS,ioos:station:wmo:42043:1,2014-10-03T12:00:00Z,28.9818,-94.9186,2.0,184.1174707,45.81827256,-99999.0,'11111222,11111222,99999999' 
TABS,ioos:station:wmo:42043:1,2014-10-03T12:30:00Z,28.9818,-94.9186,2.0,186.4907617,47.41393993,-99999.0,'11111222,11111222,99999999' 
TABS,ioos:station:wmo:42043:1,2014-10-03T13:00:00Z,28.9818,-94.9186,2.0,189.5303774,42.76020697,-99999.0,'11111222,11111222,99999999' 
TABS,ioos:station:wmo:42043:1,2014-10-03T13:30:00Z,28.9818,-94.9186,2.0,189.7398668,38.65723218,-99999.0,'11111222,11111222,99999999' 
TABS,ioos:station:wmo:42043:1,2014-10-03T14:00:00Z,28.9818,-94.9186,2.0,190.8445751,31.88953433,-99999.0,'11111222,11111222,99999999' 
TABS,ioos:station:wmo:42043:1,2014-10-03T14:30:00Z,28.9818,-94.9186,2.0,194.7616297,30.25874584,-99999.0,'11111222,11111222,99999999' 
TABS,ioos:station:wmo:42043:1,2014-10-03T15:00:00Z,28.9818,-94.9186,2.0,202.003025,31.09487739,-99999.0,'11111222,11111222,99999999' 
TABS,ioos:station:wmo:42043:1,2014-10-03T15:30:00Z,28.9818,-94.9186,2.0,216.33128,40.01976637,-99999.0,'11111222,11111222,99999999' 
TABS,ioos:station:wmo:42043:1,2014-10-03T16:00:00Z,28.9818,-94.9186,2.0,226.2590252,44.72116389,-99999.0,'11111222,11111222,99999999' 
TABS,ioos:station:wmo:42043:1,2014-10-03T16:30:00Z,28.9818,-94.9186,2.0,231.7255283,44.31530887,-99999.0,'11111222,11111222,99999999' 
TABS,ioos:station:wmo:42043:1,2014-10-03T17:00:00Z,28.9818,-94.9186,2.0,234.7052478,39.42690452,-99999.0,'11111222,11111222,99999999' 
TABS,ioos:station:wmo:42043:1,2014-10-03T17:30:00Z,28.9818,-94.9186,2.0,240.4722191,33.66202905,-99999.0,'11111222,11111222,99999999' 
TABS,ioos:station:wmo:42043:1,2014-10-03T18:00:00Z,28.9818,-94.9186,2.0,248.4232816,36.87380778,-99999.0,'11111222,11111222,99999999' 
TABS,ioos:station:wmo:42043:1,2014-10-03T18:30:00Z,28.9818,-94.9186,2.0,256.1769206,41.64608145,-99999.0,'11111222,11111222,99999999' 
TABS,ioos:station:wmo:42043:1,2014-10-03T19:00:00Z,28.9818,-94.9186,2.0,259.6395114,40.81541498,-99999.0,'11111222,11111222,99999999' 
TABS,ioos:station:wmo:42043:1,2014-10-03T19:30:00Z,28.9818,-94.9186,2.0,268.4412639,42.65577569,-99999.0,'11111222,11111222,99999999' 
TABS,ioos:station:wmo:42043:1,2014-10-03T20:00:00Z,28.9818,-94.9186,2.0,274.2161231,47.06734749,-99999.0,'11111222,11111222,99999999' 
TABS,ioos:station:wmo:42043:1,2014-10-03T20:30:00Z,28.9818,-94.9186,2.0,277.1562123,46.15953314,-99999.0,'11111222,11111222,99999999' 
TABS,ioos:station:wmo:42043:1,2014-10-03T21:00:00Z,28.9818,-94.9186,2.0,277.4534768,43.32604298,-99999.0,'11111222,11111222,99999999' 
TABS,ioos:station:wmo:42043:1,2014-10-03T21:30:00Z,28.9818,-94.9186,2.0,277.0777566,40.25672739,-99999.0,'11111222,11111222,99999999' 
TABS,ioos:station:wmo:42043:1,2014-10-03T22:00:00Z,28.9818,-94.9186,2.0,287.751912,41.35920937,-99999.0,'11111222,11111222,99999999' 
TABS,ioos:station:wmo:42043:1,2014-10-03T22:30:00Z,28.9818,-94.9186,2.0,290.2401403,39.86131082,-99999.0,'11111222,11111222,99999999' 
TABS,ioos:station:wmo:42043:1,2014-10-03T23:00:00Z,28.9818,-94.9186,2.0,296.5362073,35.09732753,-99999.0,'11111222,11111222,99999999' 
TABS,ioos:station:wmo:42043:1,2014-10-03T23:30:00Z,28.9818,-94.9186,2.0,287.7637222,28.05765493,-99999.0,'11111222,11111222,99999999' 
TABS,ioos:station:wmo:42043:1,2014-10-04T00:00:00Z,28.9818,-94.9186,2.0,292.719674,22.6038802,-99999.0,'11111222,11111222,99999999' 
TABS,ioos:station:wmo:42043:1,2014-10-04T00:30:00Z,28.9818,-94.9186,2.0,284.8885313,29.85215905,-99999.0,'11111222,11111222,99999999' 
TABS,ioos:station:wmo:42043:1,2014-10-04T01:00:00Z,28.9818,-94.9186,2.0,284.2738247,26.36384835,-99999.0,'11111222,11111222,99999999' 
TABS,ioos:station:wmo:42043:1,2014-10-04T01:30:00Z,28.9818,-94.9186,2.0,305.25335,24.09959543,-99999.0,'11111222,11111222,99999999' 
TABS,ioos:station:wmo:42043:1,2014-10-04T02:00:00Z,28.9818,-94.9186,2.0,302.2837713,19.65895216,-99999.0,'11111222,11111222,99999999' 
TABS,ioos:station:wmo:42043:1,2014-10-04T02:30:00Z,28.9818,-94.9186,2.0,307.5710832,16.187211,-99999.0,'11111222,11111222,99999999' 
TABS,ioos:station:wmo:42043:1,2014-10-04T03:00:00Z,28.9818,-94.9186,2.0,297.9545058,16.23415227,-99999.0,'11111222,11111222,99999999' 
TABS,ioos:station:wmo:42043:1,2014-10-04T03:30:00Z,28.9818,-94.9186,2.0,310.1929183,13.83726129,-99999.0,'11111222,11111222,99999999' 
TABS,ioos:station:wmo:42043:1,2014-10-04T04:00:00Z,28.9818,-94.9186,2.0,315.0003157,9.418662325,-99999.0,'11133222,11111222,99999999' 
TABS,ioos:station:wmo:42043:1,2014-10-04T04:30:00Z,28.9818,-94.9186,2.0,280.2861797,10.75280429,-99999.0,'11111222,11111222,99999999' 
TABS,ioos:station:wmo:42043:1,2014-10-04T05:00:00Z,28.9818,-94.9186,2.0,265.7615819,13.12589045,-99999.0,'11111222,11111222,99999999' 
TABS,ioos:station:wmo:42043:1,2014-10-04T05:30:00Z,28.9818,-94.9186,2.0,249.2763982,12.43450441,-99999.0,'11111222,11111222,99999999' 
TABS,ioos:station:wmo:42043:1,2014-10-04T06:00:00Z,28.9818,-94.9186,2.0,249.1272172,14.2019893,-99999.0,'11111222,11111222,99999999' 
TABS,ioos:station:wmo:42043:1,2014-10-04T06:30:00Z,28.9818,-94.9186,2.0,253.4197543,15.62984325,-99999.0,'11111222,11111222,99999999' 
TABS,ioos:station:wmo:42043:1,2014-10-04T07:00:00Z,28.9818,-94.9186,2.0,242.3536684,17.06870821,-99999.0,'11111222,11111222,99999999' 
TABS,ioos:station:wmo:42043:1,2014-10-04T07:30:00Z,28.9818,-94.9186,2.0,248.0802476,21.6446945,-99999.0,'11111222,11111222,99999999' 
TABS,ioos:station:wmo:42043:1,2014-10-04T08:00:00Z,28.9818,-94.9186,2.0,249.1683053,23.14281314,-99999.0,'11111222,11111222,99999999' 
TABS,ioos:station:wmo:42043:1,2014-10-04T08:30:00Z,28.9818,-94.9186,2.0,248.5454627,26.65705535,-99999.0,'11111222,11111222,99999999' 
TABS,ioos:station:wmo:42043:1,2014-10-04T09:00:00Z,28.9818,-94.9186,2.0,249.3523849,30.88368663,-99999.0,'11111222,11111222,99999999' 
TABS,ioos:station:wmo:42043:1,2014-10-04T09:30:00Z,28.9818,-94.9186,2.0,258.8026667,28.83893375,-99999.0,'11111222,11111222,99999999' 
TABS,ioos:station:wmo:42043:1,2014-10-04T10:00:00Z,28.9818,-94.9186,2.0,256.4932553,23.07825167,-99999.0,'11111222,11111222,99999999' 
TABS,ioos:station:wmo:42043:1,2014-10-04T10:30:00Z,28.9818,-94.9186,2.0,262.9655404,28.90757167,-99999.0,'11111222,11111222,99999999' 
TABS,ioos:station:wmo:42043:1,2014-10-04T11:00:00Z,28.9818,-94.9186,2.0,265.0483859,24.09992739,-99999.0,'11111222,11111222,99999999' 
TABS,ioos:station:wmo:42043:1,2014-10-04T11:30:00Z,28.9818,-94.9186,2.0,263.9461537,22.94795851,-99999.0,'11111222,11111222,99999999' 
TABS,ioos:station:wmo:42043:1,2014-10-04T12:00:00Z,28.9818,-94.9186,2.0,270.6643489,14.67098497,-99999.0,'11111222,11111222,99999999' 
TABS,ioos:station:wmo:42043:1,2014-10-04T12:30:00Z,28.9818,-94.9186,2.0,257.504415,14.79032116,-99999.0,'11111222,11111222,99999999' 
TABS,ioos:station:wmo:42043:1,2014-10-04T13:00:00Z,28.9818,-94.9186,2.0,263.2968613,14.13662265,-99999.0,'11111222,11111222,99999999' 
TABS,ioos:station:wmo:42043:1,2014-10-04T13:30:00Z,28.9818,-94.9186,2.0,261.7237056,13.89469323,-99999.0,'11111222,11111222,99999999' 
TABS,ioos:station:wmo:42043:1,2014-10-04T14:00:00Z,28.9818,-94.9186,2.0,253.0991783,19.36640906,-99999.0,'11111222,11111222,99999999' 
TABS,ioos:station:wmo:42043:1,2014-10-04T14:30:00Z,28.9818,-94.9186,2.0,260.9171747,23.05910883,-99999.0,'11111222,11111222,99999999' 
TABS,ioos:station:wmo:42043:1,2014-10-04T15:00:00Z,28.9818,-94.9186,2.0,251.9666133,19.83429353,-99999.0,'11111222,11111222,99999999' 
TABS,ioos:station:wmo:42043:1,2014-10-04T15:30:00Z,28.9818,-94.9186,2.0,246.7439186,22.38907099,-99999.0,'11111222,11111222,99999999' 
TABS,ioos:station:wmo:42043:1,2014-10-04T16:00:00Z,28.9818,-94.9186,2.0,254.0575512,23.62876425,-99999.0,'11111222,11111222,99999999' 